{"data":{"norad_id":68719,"epoch":"2026-05-25T04:00:03.998880Z","epoch_age_seconds":63946,"freshness":"FRESH","line1":"1 68719U 26081W   26145.16671295 -.01859828  00000+0 -40326-1 0  9991","line2":"2 68719  53.1604  38.8850 0001299  95.6642 185.0513 15.46960258  5854","mean_motion":15.46960258,"eccentricity":0.0001299,"inclination_deg":53.1604,"raan_deg":38.885,"arg_perigee_deg":95.6642,"mean_anomaly_deg":185.0513,"bstar":-0.040326,"rev_number":585,"period_min":93.085778548811,"perigee_km":424.74051646842,"apogee_km":426.50813366067,"semimajor_km":6803.7613250645,"source":"CELESTRAK","updated_at":"2026-05-25T13:38:22.002051Z"}}